Location: Newark
(46.8167°N, 54.2000°W)
Time: 02:26:09
(UTC+00:00)

Envisat - Visible Passes

Search period start: 17 October 2019 00:00
Search period end: 27 October 2019 00:00
Orbit: 764 x 766 km, 98.1° (Epoch: 16 October)

Date Brightness Start Highest point End Pass type
(mag) Time Alt. Az. Time Alt. Az. Time Alt. Az.
17 Oct 5.4 22:44:10 10° SW 22:48:12 24° W 22:52:16 10° NW visible
18 Oct 6.4 09:11:37 10° ENE 09:14:05 13° E 09:16:33 10° ESE visible
18 Oct 4.0 22:06:17 10° S 22:11:11 49° W 22:16:07 10° NNW visible
19 Oct 3.0 21:29:17 10° SSE 21:34:21 81° ENE 21:39:28 10° NNW visible
19 Oct 6.1 23:11:24 10° WSW 23:14:01 14° W 23:16:39 10° NW visible
20 Oct 5.0 22:32:27 10° SSW 22:36:51 29° W 22:41:16 10° NW visible
21 Oct 6.7 09:01:42 10° ENE 09:02:39 10° E 09:03:36 10° E visible
21 Oct 3.6 21:54:52 10° S 21:59:53 61° W 22:04:56 10° NNW visible
22 Oct 3.0 21:18:05 10° SSE 21:23:06 66° ENE 21:28:10 10° N visible
22 Oct 5.8 22:59:15 10° SW 23:02:37 18° W 23:05:59 10° NW visible
23 Oct 6.1 09:25:01 10° NE 09:28:31 18° E 09:32:00 10° SE visible
23 Oct 4.6 22:20:51 10° SSW 22:25:30 36° W 22:30:11 10° NNW visible
24 Oct 3.2 21:43:31 10° S 21:48:36 76° WSW 21:53:42 10° NNW visible
25 Oct 3.1 21:06:57 10° SE 21:11:53 53° ENE 21:16:50 10° N visible
25 Oct 5.5 22:47:21 10° SW 22:51:13 22° W 22:55:08 10° NW visible
26 Oct 6.2 09:14:17 10° NE 09:17:07 15° E 09:19:56 10° ESE visible
26 Oct 4.2 22:09:19 10° S 22:14:11 45° W 22:19:03 10° NNW visible
